Regional Weather Roundup
Issued by NWS

Home | Current Version | Previous Version | Text Only | Print | Product List | Glossary On
Versions: 1 2 3 4 5 6 7 8 9 10 11 12 13 14 15 16 17 18 19 20 21 22 23 24 25 26 27 28 29 30 31 32 33 34 35 36 37 38 39 40 41 42 43 44 45 46 47 48 49 50
000
ASUS46 KSTO 231415
RWRCA

NORTHERN AND CENTRAL CA REGIONAL WEATHER ROUNDUP
NATIONAL WEATHER SERVICE SACRAMENTO CA
700 AM PDT MON OCT 23 2017

NOTE: FAIR INDICATES FEW OR NO CLOUDS BELOW 12,000 FEET WITH NO
SIGNIFICANT WEATHER AND/OR OBSTRUCTIONS TO VISIBILITY.

CAZ001-003-231500-
NORTHWEST AREA

CITY           SKY/WX    TMP DP  RH WIND       PRES   REMARKS
CRESCENT CITY  FOG       49  49 100 N5        30.42S VSB 1/2
UKIAH          CLEAR     49  46  90 CALM      30.30R
$$

CAZ006-505>513-231500-
BAY AREA

CITY           SKY/WX    TMP DP  RH WIND       PRES   REMARKS
SANTA ROSA     CLEAR     49  48  97 W5        30.22S
SAN RAFAEL     N/A       56  MM  MM MISG
NAPA           CLEAR     49  46  90 N3        30.24S
CONCORD        CLEAR     55  50  83 CALM      30.24S
OAKLAND CITY   N/A      MM  MM  MM MISG
OAKLAND        CLEAR     52  49  89 CALM      30.24R
SAN FRAN CITY  N/A       59  MM  74 MISG
SAN FRAN ARPT  CLEAR     58  52  80 CALM      30.23S
LIVERMORE      CLEAR     66  50  56 E10       30.24R
HAYWARD        CLEAR     55  46  71 CALM      30.23S
REDWOOD CITY   N/A       52  MM  88 MISG
MOFFETT ARPT   CLEAR     59  51  75 VRB3      30.24R
SAN JOSE ARPT  CLEAR     55  51  86 VRB3      30.22S
$$
CAZ034-037-514>518-231500-
CENTRAL COAST

CITY           SKY/WX    TMP DP  RH WIND       PRES   REMARKS
WATSONVILLE    CLEAR     53  51  93 NW3       30.22S
SALINAS        CLEAR     52  44  74 E8        30.22S
MONTEREY       CLEAR     56  43  61 E7        30.20S
SAN LUIS OBISP CLEAR     63  42  46 S3        30.12R
SANTA MARIA    CLEAR     54  42  64 SE6       30.12R
$$
CAZ015-016-231500-
NORTHERN SACRAMENTO VALLEY

CITY           SKY/WX    TMP DP  RH WIND       PRES   REMARKS
REDDING        CLEAR     69  49  48 N13G18    30.32R
RED BLUFF      CLEAR     65  50  58 NW9       30.31R
OROVILLE       CLEAR     58  51  78 CALM      30.26R
$$
CAZ016>018-231500-
SOUTHERN SACRAMENTO VALLEY

CITY           SKY/WX    TMP DP  RH WIND       PRES   REMARKS
AUBURN         CLEAR     55  43  62 SE5       30.27S
BEALE AFB      CLEAR     51  47  85 E5        30.23R
LINCOLN        FAIR      45  45 100 E5        30.24S
MARYSVILLE     CLEAR     51  48  89 CALM      30.25R
SAC INTL ARPT  CLEAR     51  49  92 CALM      30.23S
MATHER AIRPORT CLEAR     52  48  87 CALM      30.24R
DOWNTOWN SAC   N/A       54  MM  MM MISG
SAC EXEC ARPT  CLEAR     49  49 100 CALM      30.24S
VACAVILLE      CLEAR     55  50  83 NW3       30.25S
TRAVIS AFB     CLEAR     50  48  93 W6        30.23R
$$
CAZ019>021-231500-
SAN JOAQUIN VALLEY

CITY           SKY/WX    TMP DP  RH WIND       PRES   REMARKS
STOCKTON       CLEAR     50  47  89 SE7       30.24R
MODESTO        CLEAR     48  46  93 E6        30.25R
MERCED         CLEAR     47  42  83 E3        30.25S
LEMOORE        CLEAR     58  38  47 S3        30.27S
FRESNO         CLEAR     51  45  79 CALM      30.28R
HANFORD        CLEAR     43  42  97 E3        30.29R FOG
PORTERVILLE    CLEAR     48  41  76 E5        30.28F
BAKERSFIELD    CLEAR     52  42  69 CALM      30.27S
$$
CAZ011-012-071-231500-
NORTHERN MOUNTAINS

CITY           SKY/WX    TMP DP  RH WIND       PRES   REMARKS
YREKA          CLOUDY    40  40 100 CALM      30.55R FOG
MOUNT SHASTA   PTCLDY    48  47  96 CALM      30.52R
ALTURAS        FOG       35  35 100 NE3       30.57R VSB 3/4
$$
CAZ011-012-071-231500-
SIERRA NEVADA MTNS

CITY           SKY/WX    TMP DP  RH WIND       PRES   REMARKS
BLUE CANYON    CLEAR     63  32  31 VRB7      30.47R
TRUCKEE        CLEAR     30  30 100 CALM      30.60R
TAHOE VLY ARPT CLEAR     30  27  88 S5        30.59R WCI  25
MAMMOTH LAKES  FAIR      28  17  63 CALM      30.63R
$$




USA.gov is the U.S. government's official web portal to all federal, state and local government web resources and services.